QFA461 YSSY-YMML

Flight info

Callsign QFA461
Flight time 1h 8m
Altitude 40000
Route MARUB7/34R WOL H65 LEECE Q29 ML
Aircraft A332/H-SDE3GHIJ2J3J5M1RVWXY/LB2D1

Departure

Time 2026-05-04 07:34
Airport Sydney Kingsford Smith International Airport (YSSY)

Arrival

Time 2026-05-04 08:42
Airport Melbourne Airport (YMML)
Time Latitude Longitude Altitude Speed Heading
2026-05-04 07:08 -33.93103 151.17628 34 ft 0 kts 166°
2026-05-04 07:15 -33.93086 151.17623 33 ft 3 kts 166°
2026-05-04 07:16 -33.93068 151.17622 33 ft 3 kts 202°
2026-05-04 07:16 -33.93051 151.17629 32 ft 3 kts 209°
2026-05-04 07:16 -33.93038 151.17644 31 ft 2 kts 254°
2026-05-04 07:16 -33.93036 151.17650 31 ft 0 kts 268°
2026-05-04 07:19 -33.93038 151.17616 31 ft 11 kts 262°
2026-05-04 07:19 -33.93066 151.17536 33 ft 10 kts 219°
2026-05-04 07:20 -33.93122 151.17524 34 ft 7 kts 167°
2026-05-04 07:20 -33.93198 151.17544 34 ft 15 kts 167°
2026-05-04 07:20 -33.93308 151.17572 34 ft 14 kts 168°
2026-05-04 07:20 -33.93430 151.17590 33 ft 21 kts 184°
2026-05-04 07:22 -33.94435 151.17910 28 ft 27 kts 186°
2026-05-04 07:22 -33.94628 151.17913 27 ft 29 kts 166°
2026-05-04 07:23 -33.94844 151.17965 28 ft 35 kts 168°
2026-05-04 07:23 -33.95021 151.18011 29 ft 14 kts 168°
2026-05-04 07:23 -33.95041 151.18016 29 ft 2 kts 168°
2026-05-04 07:24 -33.95057 151.18021 30 ft 12 kts 162°
2026-05-04 07:24 -33.95099 151.18093 30 ft 9 kts 93°
2026-05-04 07:24 -33.95086 151.18171 28 ft 9 kts 68°
2026-05-04 07:24 -33.95069 151.18238 28 ft 6 kts 85°
2026-05-04 07:25 -33.95066 151.18296 29 ft 7 kts 85°
2026-05-04 07:26 -33.95048 151.18408 30 ft 0 kts 80°
2026-05-04 07:28 -33.95047 151.18414 30 ft 4 kts 80°
2026-05-04 07:29 -33.95050 151.18477 30 ft 8 kts 117°
2026-05-04 07:29 -33.95090 151.18515 31 ft 7 kts 139°
2026-05-04 07:29 -33.95147 151.18575 30 ft 13 kts 137°
2026-05-04 07:29 -33.95237 151.18670 30 ft 20 kts 145°
2026-05-04 07:30 -33.95386 151.18739 27 ft 29 kts 167°
2026-05-04 07:30 -33.95589 151.18794 28 ft 30 kts 168°
2026-05-04 07:30 -33.95792 151.18846 30 ft 30 kts 168°
2026-05-04 07:30 -33.95997 151.18898 31 ft 30 kts 168°
2026-05-04 07:31 -33.96208 151.18954 30 ft 31 kts 168°
2026-05-04 07:31 -33.96427 151.19010 30 ft 34 kts 168°
2026-05-04 07:33 -33.97088 151.19378 31 ft 8 kts 41°
2026-05-04 07:33 -33.97058 151.19381 30 ft 3 kts 334°
2026-05-04 07:33 -33.96955 151.19348 24 ft 38 kts 348°
2026-05-04 07:33 -33.96487 151.19227 29 ft 106 kts 348°
2026-05-04 07:34 -33.95533 151.18976 116 ft 169 kts 349°
2026-05-04 07:34 -33.94309 151.18654 415 ft 191 kts 349°
2026-05-04 07:34 -33.92964 151.18410 938 ft 198 kts
2026-05-04 07:34 -33.91795 151.19124 1920 ft 193 kts 47°
2026-05-04 07:35 -33.91368 151.20697 2648 ft 214 kts 88°
2026-05-04 07:35 -33.91944 151.22420 3276 ft 232 kts 124°
2026-05-04 07:35 -33.92979 151.23953 3999 ft 240 kts 128°
2026-05-04 07:35 -33.93975 151.25561 4626 ft 239 kts 110°
2026-05-04 07:36 -33.94206 151.27476 5061 ft 230 kts 81°
2026-05-04 07:36 -33.94047 151.29418 5736 ft 235 kts 78°
2026-05-04 07:38 -33.99407 151.40534 10616 ft 300 kts 189°
2026-05-04 07:38 -34.01368 151.39812 11422 ft 293 kts 212°
2026-05-04 07:38 -34.03087 151.38505 12224 ft 292 kts 223°
2026-05-04 07:38 -34.04633 151.36914 13062 ft 293 kts 229°
2026-05-04 07:39 -34.06096 151.35189 13846 ft 296 kts 231°
2026-05-04 07:39 -34.07531 151.33431 14569 ft 299 kts 232°
2026-05-04 07:39 -34.09008 151.31640 15303 ft 303 kts 231°
2026-05-04 07:39 -34.10517 151.29858 16026 ft 306 kts 230°
2026-05-04 07:40 -34.12072 151.28070 17038 ft 308 kts 224°
2026-05-04 07:40 -34.13636 151.26310 17586 ft 310 kts 229°
2026-05-04 07:40 -34.15242 151.24516 18191 ft 318 kts 229°
2026-05-04 07:40 -34.16898 151.22669 18587 ft 331 kts 229°
2026-05-04 07:41 -34.18631 151.20732 18816 ft 348 kts 229°
2026-05-04 07:41 -34.20452 151.18697 19044 ft 364 kts 229°
2026-05-04 07:41 -34.22324 151.16606 19246 ft 379 kts 229°
2026-05-04 07:41 -34.24301 151.14401 19458 ft 392 kts 229°
2026-05-04 07:42 -34.26335 151.12136 19816 ft 401 kts 229°
2026-05-04 07:42 -34.28394 151.09847 20344 ft 404 kts 229°
2026-05-04 07:42 -34.30469 151.07541 20926 ft 405 kts 229°
2026-05-04 07:42 -34.32546 151.05227 21494 ft 407 kts 229°
2026-05-04 07:43 -34.34636 151.02893 22050 ft 410 kts 229°
2026-05-04 07:43 -34.36742 151.00536 22589 ft 412 kts 230°
2026-05-04 07:43 -34.38819 150.98207 23123 ft 414 kts 230°
2026-05-04 07:43 -34.40939 150.95827 23636 ft 416 kts 230°
2026-05-04 07:44 -34.43071 150.93432 24027 ft 418 kts 230°
2026-05-04 07:44 -34.45217 150.91019 24405 ft 422 kts 230°
2026-05-04 07:44 -34.47376 150.88589 24788 ft 425 kts 230°
2026-05-04 07:44 -34.49557 150.86133 25198 ft 428 kts 230°
2026-05-04 07:45 -34.51720 150.83696 25532 ft 432 kts 230°
2026-05-04 07:45 -34.53927 150.81208 25886 ft 435 kts 230°
2026-05-04 07:45 -34.56073 150.78623 26272 ft 433 kts 235°
2026-05-04 07:45 -34.57998 150.75834 26649 ft 431 kts 239°
2026-05-04 07:46 -34.59796 150.72916 27014 ft 432 kts 241°
2026-05-04 07:46 -34.61538 150.69939 27355 ft 435 kts 242°
2026-05-04 07:46 -34.63289 150.66902 27565 ft 441 kts 242°
2026-05-04 07:46 -34.65072 150.63825 27712 ft 449 kts 241°
2026-05-04 07:47 -34.66899 150.60708 27871 ft 456 kts 241°
2026-05-04 07:47 -34.68768 150.57556 28069 ft 462 kts 240°
2026-05-04 07:47 -34.70665 150.54387 28445 ft 463 kts 240°
2026-05-04 07:49 -34.83220 150.33474 31544 ft 451 kts 242°
2026-05-04 07:49 -34.85057 150.30402 32096 ft 446 kts 242°
2026-05-04 07:49 -34.86870 150.27361 32642 ft 441 kts 242°
2026-05-04 07:50 -34.89246 150.23365 33319 ft 436 kts 242°
2026-05-04 07:50 -34.91023 150.20376 33798 ft 433 kts 243°
2026-05-04 07:50 -34.92212 150.18374 34095 ft 431 kts 243°
2026-05-04 07:50 -34.93945 150.15454 34469 ft 429 kts 243°
2026-05-04 07:51 -34.95688 150.12511 34767 ft 428 kts 243°
2026-05-04 07:51 -34.97425 150.09577 35073 ft 428 kts 243°
2026-05-04 07:51 -34.99170 150.06624 35266 ft 430 kts 243°
2026-05-04 07:51 -35.00920 150.03662 35495 ft 431 kts 243°
2026-05-04 07:52 -35.02675 150.00696 35793 ft 430 kts 243°
2026-05-04 07:52 -35.04421 149.97745 36112 ft 428 kts 243°
2026-05-04 07:52 -35.06162 149.94802 36436 ft 426 kts 243°
2026-05-04 07:52 -35.07896 149.91864 36724 ft 425 kts 243°
2026-05-04 07:53 -35.09603 149.88968 37006 ft 425 kts 243°
2026-05-04 07:54 -35.21664 149.68432 38749 ft 423 kts 243°
2026-05-04 07:55 -35.23376 149.65511 38936 ft 422 kts 243°
2026-05-04 07:55 -35.25087 149.62585 39101 ft 422 kts 243°
2026-05-04 07:55 -35.26796 149.59661 39275 ft 423 kts 243°
2026-05-04 07:55 -35.28507 149.56728 39408 ft 424 kts 243°
2026-05-04 07:56 -35.31945 149.50830 39651 ft 426 kts 243°
2026-05-04 07:56 -35.33668 149.47875 39838 ft 426 kts 242°
2026-05-04 07:56 -35.35386 149.44925 39992 ft 426 kts 242°
2026-05-04 07:57 -35.38843 149.38972 40047 ft 433 kts 242°
2026-05-04 07:57 -35.42336 149.32943 40064 ft 440 kts 242°
2026-05-04 07:58 -35.45918 149.26758 40048 ft 448 kts 242°
2026-05-04 07:58 -35.49556 149.20469 40050 ft 454 kts 242°
2026-05-04 07:59 -35.53209 149.14154 40052 ft 453 kts 242°
2026-05-04 07:59 -35.56855 149.07837 40066 ft 453 kts 242°
2026-05-04 08:00 -35.60490 149.01518 40055 ft 453 kts 242°
2026-05-04 08:02 -35.75028 148.76128 40063 ft 454 kts 243°
2026-05-04 08:02 -35.78640 148.69789 40065 ft 455 kts 242°
2026-05-04 08:03 -35.82272 148.63407 40061 ft 454 kts 242°
2026-05-04 08:03 -35.85895 148.57028 40089 ft 454 kts 243°
2026-05-04 08:04 -35.89516 148.50633 40058 ft 455 kts 243°
2026-05-04 08:04 -35.93139 148.44204 40069 ft 455 kts 242°
2026-05-04 08:05 -35.96741 148.37795 40060 ft 456 kts 242°
2026-05-04 08:05 -36.00357 148.31353 40073 ft 456 kts 243°
2026-05-04 08:06 -36.03976 148.24898 40067 ft 456 kts 243°
2026-05-04 08:06 -36.07591 148.18438 40071 ft 457 kts 242°
2026-05-04 08:08 -36.22109 147.92440 40081 ft 459 kts 242°
2026-05-04 08:11 -36.38341 147.63160 40053 ft 459 kts 243°
2026-05-04 08:11 -36.43726 147.53371 40040 ft 460 kts 242°
2026-05-04 08:12 -36.47331 147.46799 40042 ft 460 kts 242°
2026-05-04 08:12 -36.50940 147.40212 40036 ft 460 kts 242°
2026-05-04 08:13 -36.54542 147.33627 40044 ft 460 kts 242°
2026-05-04 08:13 -36.58140 147.27032 40033 ft 461 kts 242°
2026-05-04 08:14 -36.61720 147.20462 40028 ft 461 kts 242°
2026-05-04 08:16 -36.76076 146.93977 40028 ft 460 kts 243°
2026-05-04 08:16 -36.79651 146.87348 39998 ft 460 kts 243°
2026-05-04 08:17 -36.83199 146.80753 40025 ft 461 kts 243°
2026-05-04 08:17 -36.86779 146.74089 40016 ft 461 kts 243°
2026-05-04 08:19 -37.01063 146.47371 40004 ft 463 kts 243°
2026-05-04 08:20 -37.04615 146.40694 40007 ft 463 kts 243°
2026-05-04 08:20 -37.08188 146.33965 39954 ft 463 kts 243°
2026-05-04 08:21 -37.09971 146.30600 39376 ft 465 kts 243°
2026-05-04 08:21 -37.11768 146.27204 38790 ft 467 kts 243°
2026-05-04 08:21 -37.13561 146.23812 38146 ft 468 kts 243°
2026-05-04 08:21 -37.15362 146.20406 37455 ft 469 kts 243°
2026-05-04 08:22 -37.17162 146.16995 36707 ft 470 kts 244°
2026-05-04 08:22 -37.18948 146.13611 35965 ft 472 kts 244°
2026-05-04 08:24 -37.31809 145.89139 28556 ft 473 kts 245°
2026-05-04 08:24 -37.33610 145.85739 28301 ft 462 kts 245°
2026-05-04 08:24 -37.35376 145.82432 28080 ft 450 kts 245°
2026-05-04 08:24 -37.37107 145.79218 27930 ft 437 kts 245°
2026-05-04 08:25 -37.38802 145.76102 27894 ft 424 kts 244°
2026-05-04 08:25 -37.40430 145.73140 27849 ft 411 kts 244°
2026-05-04 08:25 -37.42040 145.70244 27861 ft 397 kts 244°
2026-05-04 08:25 -37.43605 145.67461 27899 ft 382 kts 244°
2026-05-04 08:26 -37.45125 145.64798 27951 ft 367 kts 244°
2026-05-04 08:27 -37.54988 145.48279 26325 ft 336 kts 242°
2026-05-04 08:28 -37.56400 145.45917 25823 ft 340 kts 241°
2026-05-04 08:28 -37.57832 145.43517 25324 ft 344 kts 240°
2026-05-04 08:28 -37.59276 145.41091 24837 ft 347 kts 240°
2026-05-04 08:28 -37.60720 145.38644 24359 ft 350 kts 239°
2026-05-04 08:29 -37.62156 145.36195 23836 ft 353 kts 239°
2026-05-04 08:29 -37.63618 145.33679 23253 ft 358 kts 239°
2026-05-04 08:29 -37.65093 145.31122 22604 ft 362 kts 239°
2026-05-04 08:31 -37.76950 145.13688 17884 ft 394 kts 210°
2026-05-04 08:33 -37.96509 145.09835 11960 ft 386 kts 191°
2026-05-04 08:33 -37.99108 145.09358 11177 ft 366 kts 200°
2026-05-04 08:35 -38.04053 144.95273 8922 ft 221 kts 294°
2026-05-04 08:35 -38.03455 144.93539 8921 ft 208 kts 295°
2026-05-04 08:35 -38.02858 144.91921 8882 ft 197 kts 296°
2026-05-04 08:35 -38.02263 144.90428 8809 ft 187 kts 298°
2026-05-04 08:37 -37.95455 144.86799 7714 ft 251 kts
2026-05-04 08:37 -37.93719 144.87232 7101 ft 256 kts
2026-05-04 08:37 -37.91975 144.87676 6496 ft 256 kts
2026-05-04 08:38 -37.90228 144.88052 5859 ft 253 kts 359°
2026-05-04 08:38 -37.88487 144.88172 5243 ft 248 kts 352°
2026-05-04 08:38 -37.86781 144.88076 4676 ft 244 kts 349°
2026-05-04 08:40 -37.76020 144.85619 1601 ft 189 kts 347°
2026-05-04 08:40 -37.74762 144.85357 1492 ft 177 kts 346°
2026-05-04 08:40 -37.73605 144.85104 1337 ft 160 kts 348°
2026-05-04 08:41 -37.72542 144.84850 1143 ft 153 kts 349°
2026-05-04 08:41 -37.71468 144.84628 938 ft 161 kts 353°
2026-05-04 08:41 -37.70366 144.84428 755 ft 158 kts 354°
2026-05-04 08:41 -37.69263 144.84227 564 ft 162 kts 353°
2026-05-04 08:42 -37.68159 144.84018 367 ft 160 kts 353°
2026-05-04 08:42 -37.67326 144.83865 375 ft 61 kts 353°
2026-05-04 08:42 -37.67048 144.83838 384 ft 33 kts
2026-05-04 08:42 -37.66857 144.83903 387 ft 24 kts 21°
2026-05-04 08:43 -37.66747 144.83978 386 ft 10 kts 46°
2026-05-04 08:43 -37.66733 144.84008 386 ft 0 kts 63°
2026-05-04 08:43 -37.66731 144.84012 385 ft 2 kts 63°
2026-05-04 08:43 -37.66725 144.84028 385 ft 0 kts 67°
2026-05-04 08:46 -37.66684 144.84151 380 ft 12 kts 36°
2026-05-04 08:46 -37.66619 144.84161 379 ft 9 kts 357°
2026-05-04 08:46 -37.66564 144.84153 379 ft 7 kts 349°
2026-05-04 08:46 -37.66521 144.84146 378 ft 6 kts 353°
2026-05-04 08:47 -37.66471 144.84137 378 ft 14 kts 354°
2026-05-04 08:47 -37.66423 144.84183 374 ft 5 kts 91°
2026-05-04 08:47 -37.66433 144.84330 372 ft 32 kts 98°
2026-05-04 08:47 -37.66451 144.84588 347 ft 27 kts 87°
2026-05-04 08:48 -37.66483 144.84776 335 ft 21 kts 113°
2026-05-04 08:48 -37.66503 144.84796 333 ft 1 kts 174°
2026-05-04 08:48 -37.66507 144.84796 335 ft 0 kts 175°
2026-05-04 08:50 -37.66824 144.84860 353 ft 2 kts 137°
2026-05-04 08:50 -37.66840 144.84899 354 ft 6 kts 108°
2026-05-04 08:51 -37.66839 144.84908 352 ft 0 kts 82°